Location: Newark
(13.6797°N, 8.5297°E)
Time: 20:03:32
(UTC+00:00)

Transit 2A - Visible Passes

Search period start: 29 January 2020 00:00
Search period end: 08 February 2020 00:00
Orbit: 601 x 958 km, 66.7° (Epoch: 28 January)

Date Brightness Start Highest point End Pass type
(mag) Time Alt. Az. Time Alt. Az. Time Alt. Az.
29 Jan 6.1 04:27:58 23° NNW 04:31:28 88° ENE 04:37:23 10° SSE visible
30 Jan 6.7 03:55:47 40° NNE 03:57:23 54° ENE 04:03:07 10° SE visible
31 Jan 7.6 03:23:37 33° ENE 03:23:37 33° ENE 03:28:30 10° SE visible
31 Jan 7.5 05:04:11 16° W 05:06:17 20° WSW 05:10:25 10° SSW visible
31 Jan 8.4 17:47:08 10° W 17:49:20 13° WNW 17:51:29 10° NW visible
01 Feb 8.7 02:51:28 17° E 02:51:28 17° E 02:53:24 10° ESE visible
01 Feb 6.9 04:32:02 32° WSW 04:32:10 32° WSW 04:37:22 10° S visible
02 Feb 7.0 03:59:52 38° SSW 03:59:52 38° SSW 04:03:50 10° S visible
03 Feb 8.0 03:27:39 24° SSE 03:27:39 24° SSE 03:29:58 10° SSE visible
04 Feb 8.9 02:55:25 12° SSE 02:55:25 12° SSE 02:55:45 10° SSE visible
